Location: Montbazon
(47.2835°N, 0.6999°E)
Time: 17:10:56
(UTC+00:00)

Cosmos 407 Rocket - Pass Details

Date: 08 November 2025
Orbit: 740 x 780 km, 74.0° (Epoch: 09 December)

Event Time Altitude Azimuth Distance (km) Brightness Sun altitude
Exits shadow 04:54:42 - 340° (NNW) 2,389 5.8 -19.9°
Reaches altitude 10° 04:55:01 10° 341° (NNW) 2,263 5.7 -19.9°
Maximum altitude 05:00:08 74° 66° (ENE) 775 3.6 -19.0°
Drops below altitude 10° 05:05:13 10° 152° (SSE) 2,246 6.3 -18.1°
Sets 05:07:34 0° 154° (SSE) 3,167 7.1 -17.7°
